Regional Weather Roundup
Issued by NWS

Home | Current Version | Previous Version | Text Only | Print | Product List | Glossary Off
Versions: 1 2 3 4 5 6 7 8 9 10 11 12 13 14 15 16 17 18 19 20 21 22 23 24 25 26 27 28 29 30 31 32 33 34 35 36 37 38 39 40 41 42 43 44 45 46 47 48 49 50

379
ASUS43 KMPX 261601
RWRMN
WEATHER ROUNDUP FOR MINNESOTA
NATIONAL WEATHER SERVICE TWIN CITIES/CHANHASSEN MN
1100 AM CDT FRI AUG 26 2016


NOTE: "FAIR" INDICATES FEW OR NO CLOUDS BELOW 12,000 FEET WITH NO
SIGNIFICANT WEATHER AND/OR OBSTRUCTIONS TO VISIBILITY. N/A MEANS
CURRENT SKY AND/OR WEATHER CONDITIONS ARE NOT AVAILABLE.

MNZ060>063-068>070-261700-
   Twin Cities Metro

CITY           SKY/WX    TMP DP  RH WIND       PRES   REMARKS
TWIN CITIES    PTSUNNY   67  55  65 S5        30.19S
ST PAUL        CLOUDY    68  55  63 E5        30.20R
CRYSTAL        CLOUDY    69  51  52 E3        30.18S
BLAINE         PTSUNNY   70  55  60 CALM      30.18S
LAKEVILLE      PTSUNNY   64  57  77 SE3       30.20S
EDEN PRAIRIE   CLOUDY    68  55  63 CALM      30.18F
LAKEVILLE      PTSUNNY   64  57  77 SE3       30.20S
SOUTH ST PAUL  CLOUDY    68  56  64 SE5       30.19S
LAKE ELMO      FAIR      68  54  60 CALM      30.21R
$$
MNZ001>005-007-008-013>017-022>024-027-028-261700-
   Northwest Minnesota

CITY           SKY/WX    TMP DP  RH WIND       PRES   REMARKS
BEMIDJI        SUNNY     67  54  64 SW5       30.13R
HALLOCK        SUNNY     70  52  52 S8        30.05S
ROSEAU         SUNNY     68  55  64 S6        30.07S
WARROAD        SUNNY     66  55  68 S3        30.08S
THIEF RVR FALL SUNNY     66  53  63 SE6       30.10F
CROOKSTON      SUNNY     64  54  68 S8        30.09F
FOSSTON        SUNNY     64  54  68 S7        30.12F
DETROIT LAKES  SUNNY     66  52  59 W6        30.15S
MOORHEAD       SUNNY     68  54  60 SW7       30.13F
PARK RAPIDS    SUNNY     68  52  56 VRB6      30.14F
MAHNOMEN       FAIR      65  54  68 S6        30.12F
$$
MNZ006-009>011-018-025>026-261700-
   North Central Minnesota

CITY           SKY/WX    TMP DP  RH WIND       PRES   REMARKS
BAUDETTE       SUNNY     66  52  60 S5        30.09S
FLAG ISLAND    SUNNY     64  50  59 CALM      30.07R
INTL FALLS     SUNNY     66  55  67 VRB6      30.10F
WASKISH        SUNNY     68  55  64 SW5       30.11R
BIG FORK       SUNNY     68  55  64 S5        30.13S
LONGVILLE      SUNNY     68  55  64 SW5       30.14S
GRAND RAPIDS   SUNNY     67  53  61 S7        30.16S
CRANE LAKE     SUNNY     63  54  72 S1        30.14S
ORR            SUNNY     66  52  59 CALM      30.11S
COOK           SUNNY     66  54  63 CALM      30.14S
WALKER         FAIR      65  53  65 SW5       30.14S
$$
MNZ012-019>021-037-261700-
   Northeast Minnesota

CITY           SKY/WX    TMP DP  RH WIND       PRES   REMARKS
DULUTH         MOSUNNY   69  50  50 CALM      30.16S
ELY            SUNNY     63  50  63 CALM      30.15F
HIBBING        MOSUNNY   65  50  58 VRB6      30.15S
EVELETH        SUNNY     65  46  49 CALM      30.16S
DULUTH HARBOR  SUNNY     70  55  60 E3        30.16F
TWO HARBORS    MOSUNNY   70  54  56 CALM      30.15R
SILVER BAY     SUNNY     70  52  52 S3        30.14S
G MARAIS ARPRT MOSUNNY   63  43  48 N3        30.16S
$$
MNZ029>031-032-039>041-046>048-054>057-064-261700-
   West Central Minnesota

CITY           SKY/WX    TMP DP  RH WIND       PRES   REMARKS
FERGUS FALLS   SUNNY     64  55  72 SW3       30.17F
WHEATON        SUNNY     70  57  64 S5        30.17S
MORRIS         SUNNY     70  54  56 CALM      30.16S
ALEXANDRIA     SUNNY     67  53  61 W3        30.18F
ELBOW LAKE     FAIR      65  56  71 SW5       30.16F
WADENA         SUNNY     66  54  63 SW6       30.15S
GLENWOOD       SUNNY     68  52  56 SW3       30.18S
APPLETON       SUNNY     66  54  63 SE3       30.17S
BENSON         SUNNY     66  54  63 SW6       30.18S
ORTONVILLE     SUNNY     68  54  60 CALM      30.17S
MADISON        SUNNY     66  54  63 S3        30.17S
WILLMAR        FAIR      66  55  68 CALM      30.20S
$$
MNZ033>034-036-042>043-049>051-058-059-261700-
   Central Minnesota

CITY           SKY/WX    TMP DP  RH WIND       PRES   REMARKS
ST CLOUD       SUNNY     68  57  68 S5        30.17F
SAUK CENTRE    FAIR      67  53  61 W6        30.18S
PAYNESVILLE    SUNNY     67  53  59 CALM      30.19S
AITKIN         SUNNY     70  48  46 SW5       30.15S
PINE RIVER     SUNNY     68  54  60 SW3       30.17F
BRAINERD       SUNNY     67  54  63 SW8       30.16F
STAPLES        SUNNY     68  52  56 SW9       30.16S
LONG PRAIRIE   FAIR      66  52  59 S5        30.17F
LITTLE FALLS   SUNNY     68  50  52 W3        30.17S
LITCHFIELD     MOSUNNY   68  57  68 SE3       30.19S
BUFFALO        PTSUNNY   66  54  64 CALM      30.19F
MAPLE LAKE     MOSUNNY   68  59  73 SE3       30.19F
HUTCHINSON     SUNNY     66  57  71 CALM      30.20S
$$
MNZ037-044-045-052-053-261700-
   East Central Minnesota

CITY           SKY/WX    TMP DP  RH WIND       PRES   REMARKS
PRINCETON      CLOUDY    70  55  60 CALM      30.17F
MORA           SUNNY     64  52  63 CALM      30.18F
CAMBRIDGE      CLOUDY    70  54  56 CALM      30.16S
RUSH CITY      SUNNY     67  56  67 CALM      30.18S
MOOSE LAKE     SUNNY     68  50  52 SE3       30.15F
HINCKLEY       FAIR      68  55  64 CALM      30.17S
CLOQUET        SUNNY     66  45  45 CALM      30.16F
MCGREGOR       SUNNY     68  54  60 S6        30.16F
$$
MNZ071>073-080-081-089-090-097-098-261700-
   Southwest Minnesota

CITY           SKY/WX    TMP DP  RH WIND       PRES   REMARKS
MONTEVIDEO     SUNNY     70  55  60 S3        30.19F
GRANITE FALLS  CLOUDY    67  57  71 SE3       30.20S
CANBY          SUNNY     68  55  62 E6        30.19S
MARSHALL       MOSUNNY   65  55  70 SE5       30.19S HAZE
REDWOOD FALLS  CLOUDY    65  55  70 SE7       30.19S
OLIVIA         MOSUNNY   66  55  68 CALM      30.18F
PIPESTONE      MOSUNNY   64  54  68 SE6       30.19S
WINDOM         CLOUDY    66  54  63 E6        30.19F
WORTHINGTON    CLOUDY    63  56  78 E8        30.20F
JACKSON          N/A     66  52  59 E7        30.20F
TRACY          CLOUDY    66  57  71 SE7       30.20S
SLAYTON        CLOUDY    63  55  77 SE9       30.20F
$$
MNZ065>067-074>077-082>085-091>093-261700-
   South Central Minnesota

CITY           SKY/WX    TMP DP  RH WIND       PRES   REMARKS
MANKATO        CLOUDY    64  55  72 SE5       30.20S
NEW ULM          N/A     64  55  72 S3        30.19F
ST JAMES       CLOUDY    61  52  72 CALM      30.20F
FAIRMONT       CLOUDY    63  57  81 SE3       30.20F
GLENCOE        MOSUNNY   68  58  70 SE3       30.19S
FARIBAULT      CLOUDY    66  55  68 CALM      30.21S
OWATONNA       PTSUNNY   66  55  68 CALM      30.20F
WASECA         PTSUNNY   63  55  77 CALM      30.21F
ALBERT LEA     PTSUNNY   64  55  72 SE3       30.21S
$$
MNZ078>079-086>088-094>096-261700-
   Southeast Minnesota

CITY           SKY/WX    TMP DP  RH WIND       PRES   REMARKS
ROCHESTER      CLOUDY    65  57  75 VRB3      30.21F
RED WING       CLOUDY    68  54  60 CALM      30.18F
STANTON        CLOUDY    68  55  64 CALM      30.19S
DODGE CENTER   CLOUDY    70  55  60 CALM      30.20F
WINONA         CLOUDY    66  55  68 CALM      30.20S
AUSTIN         CLOUDY    64  57  77 SE3       30.20S
PRESTON        PTSUNNY   63  56  76 CALM      30.21F
$$
ABBREVIATIONS USED IN REMARKS
   TC - TEMPERATURES IN CELSIUS
  WCI - WIND CHILL INDEX
   HX - HEAT INDEX
  VSB - VISIBILITY
$$




USA.gov is the U.S. government's official web portal to all federal, state and local government web resources and services.